This demonstration page uses our WeatherBlox Daily Observations layout. Learn more.

38.89511, -77.03637

Hourly Observations for February 5, 2020

Temp ( °F °C ) Dew Point ( °F °C ) Humidity (%) Winds ( mph kmh ) Pressure ( in mb ) Visibility ( mi km ) Precip ( " mm )
12:52 am 00:52 Cloudy 56 13.3 49 9.4 77 77 S 5 7 29.78 1009 10 16.0934 0.001 0.001
1:52 am 01:52 Cloudy 55 12.8 49 9.4 80 80 S 6 9 29.78 1008 10 16.0934 0.001 0.001
2:52 am 02:52 Cloudy 56 13.3 49 9.4 77 77 S 6 9 29.79 1009 10 16.0934 0 0
3:52 am 03:52 Cloudy with Light Rain 54 12.2 50 10 87 87 Calm 29.79 1009 10 16.0934 0.01 0.254
4:52 am 04:52 Cloudy 55 12.8 51 10.6 87 87 SSW 3 6 29.82 1010 10 16.0934 0.001 0.001
5:52 am 05:52 Cloudy 53 11.7 51 10.6 93 93 N 8 13 29.88 1012 10 16.0934 0 0
6:04 am 06:04 Cloudy 54 12.2 50 10 87 87 NNW 15 24 29.89 1012 10 16.0934 0 0
6:17 am 06:17 Cloudy 52 11.1 48 8.9 86 86 NNW 16 26 29.91 1013 10 16.0934 0 0
6:52 am 06:52 Cloudy 49 9.4 44 6.7 83 83 N 20 31 29.93 1014 10 16.0934 0 0
7:31 am 07:31 Cloudy 47 8.3 41 5 80 80 N 15 24 29.98 1015 10 16.0934 0 0
7:52 am 07:52 Cloudy 46 7.8 40 4.4 79 79 N 17 28 30 1016 10 16.0934 0 0
8:52 am 08:52 Cloudy 44 6.7 38 3.3 79 79 N 18 30 30.03 1017 10 16.0934 0 0
9:52 am 09:52 Cloudy 44 6.7 37 2.8 76 76 N 18 30 30.04 1017 10 16.0934 0 0
10:52 am 10:52 Cloudy 43 6.1 37 2.8 80 80 NNE 13 20 30.06 1018 10 16.0934 0 0
11:41 am 11:41 Cloudy 42 5.6 37 2.8 82 82 N 14 22 30.08 1019 10 16.0934 0 0
11:52 am 11:52 Cloudy with Light Rain 42 5.6 37 2.8 82 82 NNE 14 22 30.07 1018 10 16.0934 0.001 0.001
12:08 pm 12:08 Cloudy with Light Rain 42 5.6 37 2.8 82 82 NNE 12 19 30.08 1019 8 12.87472 0.001 0.001
12:30 pm 12:30 Cloudy with Light Rain 42 5.6 38 3.3 85 85 NNE 12 19 30.08 1019 9 14.48406 0.001 0.001
12:52 pm 12:52 Cloudy with Light Rain 42 5.6 38 3.3 85 85 NNE 8 13 30.07 1018 8 12.87472 0.001 0.001
1:52 pm 13:52 Cloudy 41 5 38 3.3 89 89 NE 9 15 30.04 1017 7 11.26538 0.001 0.001
2:23 pm 14:23 Cloudy 41 5 37 2.8 86 86 NNE 10 17 30.03 1017 10 16.0934 0 0
2:52 pm 14:52 Cloudy 41 5 37 2.8 86 86 NNE 12 19 30.04 1017 10 16.0934 0 0
3:14 pm 15:14 Cloudy 41 5 36 2.2 82 82 NE 12 19 30.04 1017 10 16.0934 0 0
3:52 pm 15:52 Cloudy 40 4.4 35 1.7 83 83 ENE 9 15 30.04 1017 10 16.0934 0 0
4:52 pm 16:52 Cloudy 41 5 34 1.1 76 76 ENE 13 20 30.02 1017 10 16.0934 0 0
5:52 pm 17:52 Cloudy 41 5 33 0.6 73 73 E 8 13 30.04 1017 10 16.0934 0 0
6:52 pm 18:52 Cloudy 40 4.4 33 0.6 77 77 E 13 20 30.01 1016 10 16.0934 0 0
7:20 pm 19:20 Cloudy with Light Rain 40 4.4 34 1.1 79 79 NNE 8 13 30.05 1018 10 16.0934 0.001 0.001
7:52 pm 19:52 Cloudy 39 3.9 35 1.7 86 86 NE 8 13 30.03 1017 10 16.0934 0.001 0.001
7:57 pm 19:57 Cloudy with Light Rain 39 3.9 36 2.2 89 89 ENE 9 15 30.01 1016 9 14.48406 0.001 0.001
8:06 pm 20:06 Cloudy with Light Rain 39 3.9 36 2.2 89 89 E 10 17 29.99 1016 6 9.65604 0.01 0.254
8:49 pm 20:49 Cloudy with Light Rain 39 4 37 3 93 93 NE 8 13 29.99 1016 6 9.65604 0.02 0.508
8:52 pm 20:52 Cloudy with Light Rain 39 3.9 37 2.8 93 93 NE 7 11 29.99 1016 5 8.0467 0.02 0.508
9:23 pm 21:23 Cloudy with Light Rain 39 3.9 37 2.8 93 93 NE 7 11 29.99 1016 7 11.26538 0.01 0.254
9:52 pm 21:52 Cloudy with Light Rain 39 3.9 37 2.8 93 93 NNE 6 9 29.96 1015 6 9.65604 0.02 0.508
10:03 pm 22:03 Cloudy with Light Rain 39 3.9 37 2.8 93 93 N 3 6 29.96 1015 7 11.26538 0.001 0.001
10:25 pm 22:25 Cloudy with Light Rain 39 3.9 37 2.8 93 93 ENE 6 9 29.95 1014 2 3.21868 0.001 0.001
10:31 pm 22:31 Cloudy with Light Rain 39 3.9 37 2.8 93 93 ENE 6 9 29.95 1014 2 3.21868 0.001 0.001
10:46 pm 22:46 Cloudy with Light Rain 39 4 37 3 93 93 N 6 9 29.96 1015 3 4.82802 0.01 0.254
10:52 pm 22:52 Cloudy with Light Rain 39 3.9 38 3.3 96 96 N 5 7 29.96 1014 3 4.82802 0.02 0.508
11:02 pm 23:02 Cloudy with Rain 39 3.9 37 2.8 93 93 NNE 3 6 29.95 1014 2 3.21868 0.01 0.254
11:32 pm 23:32 Cloudy with Light Rain 39 3.9 38 3.3 96 96 ENE 3 6 29.92 1013 4 6.43736 0.04 1.016
11:52 pm 23:52 Cloudy with Light Rain 39 3.9 38 3.3 96 96 ENE 5 7 29.9 1013 2.5 4.02335 0.05 1.27

Powered by AerisWeather